Waarnemingen

Advertentie
Mijn weer
St-Girons, Frankrijk (7627): temperatuur & dauwpunt: 17.10.2019 15:00:00 - 23.10.2019 15:00:00 (CEST)St-Girons, Frankrijk (7627): temperatuur 5cm: 17.10.2019 15:00:00 - 23.10.2019 15:00:00 (CEST)St-Girons, Frankrijk (7627): temperatuur -20cm & temperatuur -100cm: 17.10.2019 15:00:00 - 23.10.2019 15:00:00 (CEST)St-Girons, Frankrijk (7627): windsnelheid & windstoten: 17.10.2019 15:00:00 - 23.10.2019 15:00:00 (CEST)St-Girons, Frankrijk (7627): windrichting: 17.10.2019 15:00:00 - 23.10.2019 15:00:00 (CEST)St-Girons, Frankrijk (7627): luchtdruk: 17.10.2019 15:00:00 - 23.10.2019 15:00:00 (CEST)St-Girons, Frankrijk (7627): zicht: 17.10.2019 15:00:00 - 23.10.2019 15:00:00 (CEST)St-Girons, Frankrijk (7627): Zonneschijnduur: 17.10.2019 15:00:00 - 23.10.2019 15:00:00 (CEST)St-Girons, Frankrijk (7627): neerslag: 17.10.2019 15:00:00 - 23.10.2019 15:00:00 (CEST)
Datum & Tijd tt [°C] td [°C] tt 5cm [°C] tt -20cm [°C] tt -100cm [°C] ff [km/u] ff [kn] fx [km/u] fx [kn] dd ppp [hPa] vv [km] sd [min] rr [mm]
23.10.2019 15:00:00 17,4 11,2 20,8 15,0 17,3 16 9 26 14 NW 1002,8 20 60 0,0
23.10.2019 14:00:00 16,7 12,4 17,5 15,0 17,3 14 8 22 12 WNW 1003,5 20 25 0,0
23.10.2019 13:00:00 15,3 10,9 16,3 15,0 17,3 9 5 26 14 OZO 1003,3 20 6 0,0
23.10.2019 12:00:00 14,7 11,3 13,8 14,9 17,3 12 6 27 15 ZZO 1004,0 20 2 0,0
23.10.2019 11:00:00 13,0 10,4 12,1 15,0 17,3 14 7 28 15 ZZO 1004,4 20 0 0,0
23.10.2019 10:00:00 12,3 10,0 10,7 15,0 17,3 8 4 31 17 O 1004,9 20 0 0,0
23.10.2019 09:00:00 11,3 10,0 10,2 15,0 17,3 12 7 22 12 ZO 1004,8 20 0 0,0
23.10.2019 08:00:00 11,4 10,1 10,4 15,1 17,3 10 6 24 13 ZO 1007,2 20 0 0,0
23.10.2019 07:00:00 11,3 10,0 10,0 15,1 17,4 12 6 21 12 OZO 1006,9 20 0 0,2
23.10.2019 06:00:00 10,7 10,1 10,1 15,1 17,3 4 2 9 5 ONO 1007,6 2,0 0 1,8
23.10.2019 05:00:00 11,0 10,1 10,5 15,2 17,4 5 3 28 15 ZW 1009,0 12 0 3,2
23.10.2019 04:00:00 11,3 10,5 9,8 15,3 17,4 14 7 23 12 ZZO 1009,9 12 0 4,7
23.10.2019 03:00:00 10,0 9,5 9,6 15,4 17,4 6 3 10 6 ZO 1010,6 16 0 4,2
23.10.2019 02:00:00 10,1 9,6 9,2 15,4 17,4 7 4 16 8 ZO 1011,9 9 0 4,1
23.10.2019 01:00:00 9,4 8,8 9,2 15,5 17,4 2 1 10 6 WZW 1011,1 3,2 0 4,4
23.10.2019 00:00:00 9,5 8,9 8,8 15,5 17,4 4 2 9 5 N 1012,2 6 0 1,0
22.10.2019 23:00:00 9,2 8,6 8,9 15,5 17,4 4 2 10 6 WNW 1011,5 8 0 0,2
22.10.2019 22:00:00 9,5 8,9 9,0 15,5 17,4 6 3 10 6 ZO 1013,3 18 0 0,8
22.10.2019 21:00:00 9,5 8,7 9,3 15,6 17,4 4 2 16 9 NNO 1013,5 6 0 0,8
22.10.2019 20:00:00 9,8 9,0 9,6 15,5 17,4 0 0 6 3 N 1012,7 12 0 0,0
22.10.2019 19:00:00 10,1 9,3 10,1 15,5 17,4 2 1 10 5 NNO 1013,2 7 0 0,2
22.10.2019 18:00:00 10,2 9,4 10,2 15,6 17,4 3 2 9 5 NNW 1014,2 20 0 0,2
22.10.2019 17:00:00 10,2 9,4 9,9 15,6 17,4 6 3 9 5 W 1014,6 10 0 5,7
22.10.2019 16:00:00 10,6 9,5 10,6 15,6 17,4 2 1 12 6 N 1015,8 11 0 1,0
22.10.2019 15:00:00 10,7 9,5 10,9 15,6 17,4 5 3 11 6 NNW 1016,1 8 0 1,6
22.10.2019 14:00:00 11,0 9,9 11,6 15,6 17,4 4 2 8 4 NNW 1017,2 19 0 0,0
22.10.2019 13:00:00 10,6 9,5 10,9 15,6 17,4 4 2 6 3 ZW 1018,2 13 0 0,2
22.10.2019 12:00:00 9,9 9,1 9,9 15,7 17,4 0 0 4 2 N 1019,2 20 0 0,2
22.10.2019 11:00:00 9,2 8,6 9,5 15,7 17,4 3 2 5 3 ZZW 1020,5 13 0 0,6
22.10.2019 10:00:00 9,0 8,5 8,5 15,7 17,4 2 1 9 5 N 1020,5 12 0 0,8
22.10.2019 09:00:00 8,5 8,1 8,0 15,8 17,4 4 2 8 4 NNW 1020,8 18 0 0,0
22.10.2019 08:00:00 8,3 7,7 7,8 15,8 17,4 2 1 5 3 ZZW 1020,4 20 0 0,0
22.10.2019 07:00:00 8,1 7,7 7,5 15,9 17,4 3 1 7 4 NW 1020,5 20 0 0,0
22.10.2019 06:00:00 7,7 7,1 7,4 16,0 17,4 0 0 6 3 N 1021,1 18 0 0,0
22.10.2019 05:00:00 7,7 7,3 7,6 16,1 17,5 3 2 6 4 ZW 1021,0 9 0 0,0
22.10.2019 04:00:00 7,8 7,4 4,7 16,1 17,5 0 0 5 3 N 1021,5 19 0 0,0
22.10.2019 03:00:00 6,9 6,3 3,8 16,2 17,5 2 1 6 4 O 1022,2 3,7 0 0,0
22.10.2019 02:00:00 7,8 7,2 6,1 16,2 17,5 2 1 5 3 NNW 1022,0 20 0 0,0
22.10.2019 01:00:00 6,9 6,3 3,5 16,3 17,4 0 0 3 2 N 1022,2 20 0 0,0
22.10.2019 00:00:00 6,9 5,8 4,2 16,4 17,5 2 1 4 2 W 1021,9 20 0 0,0
21.10.2019 23:00:00 7,1 6,2 4,0 16,4 17,5 3 2 4 2 WZW 1022,1 20 0 0,0
21.10.2019 22:00:00 8,5 7,3 5,0 16,4 17,5 2 1 5 3 ZZO 1021,4 20 0 0,0
21.10.2019 21:00:00 10,5 8,9 7,2 16,4 17,5 0 0 5 3 N 1020,9 20 0 0,0
21.10.2019 20:00:00 11,7 9,6 11,1 16,3 17,5 4 2 5 3 WZW 1020,4 20 0 0,0
21.10.2019 19:00:00 12,5 9,1 12,0 16,3 17,5 3 2 9 5 W 1019,8 20 0 0,0
21.10.2019 18:00:00 13,3 8,1 13,2 16,2 17,5 4 2 10 5 NNW 1019,2 20 0 0,0
21.10.2019 17:00:00 14,1 8,7 14,5 16,2 17,5 4 2 9 5 NW 1018,8 20 0 0,0
21.10.2019 16:00:00 13,9 8,1 14,3 16,1 17,5 4 2 10 6 NO 1018,6 20 0 0,0
21.10.2019 15:00:00 14,3 6,9 16,6 16,0 17,5 4 2 10 6 W 1018,5 20 0 0,0
21.10.2019 14:00:00 14,9 7,4 19,2 16,0 17,5 2 1 13 7 NNO 1018,6 20 33 0,0
21.10.2019 13:00:00 14,0 6,6 17,6 16,0 17,5 3 2 7 4 NNO 1019,1 19 40 0,0
21.10.2019 12:00:00 12,5 7,8 13,7 16,0 17,5 3 1 6 4 NO 1019,7 20 13 0,0
21.10.2019 11:00:00 11,3 9,0 10,7 16,1 17,5 0 0 4 2 N 1019,8 20 8 0,0
21.10.2019 10:00:00 9,5 8,9 7,6 16,1 17,5 2 1 5 3 ZZW 1019,7 20 0 0,0
21.10.2019 09:00:00 8,7 7,9 7,3 16,2 17,5 2 1 4 2 ONO 1019,1 20 0 0,0
21.10.2019 08:00:00 9,0 8,4 8,7 16,2 17,5 2 1 4 2 ZW 1018,6 20 0 0,0
21.10.2019 07:00:00 9,0 8,4 8,5 16,3 17,5 0 0 5 3 N 1018,3 20 0 0,0
21.10.2019 06:00:00 8,7 8,1 8,1 16,4 17,5 2 1 4 2 NNW 1018,1 20 0 0,0
21.10.2019 05:00:00 8,2 7,6 5,7 16,4 17,5 4 2 7 4 ZZW 1017,8 20 0 0,0
21.10.2019 04:00:00 7,9 7,3 4,7 16,5 17,5 3 2 6 3 ZZW 1017,6 17 0 0,0
21.10.2019 03:00:00 9,4 8,0 7,0 16,5 17,5 2 1 5 3 NNW 1016,7 20 0 0,0
21.10.2019 02:00:00 10,4 8,7 9,6 16,5 17,5 2 1 6 3 ZO 1016,0 20 0 0,0
21.10.2019 01:00:00 10,6 8,2 9,8 16,6 17,5 5 3 9 5 NNW 1015,5 20 0 0,0
21.10.2019 00:00:00 10,6 9,4 10,1 16,6 17,6 3 1 18 10 NNO 1015,1 12 0 0,0
20.10.2019 23:00:00 11,1 9,2 10,5 16,6 17,5 10 5 19 10 NW 1014,7 20 0 0,0
20.10.2019 22:00:00 11,6 8,8 10,6 16,6 17,6 10 5 19 11 NW 1013,3 20 0 0,0
20.10.2019 21:00:00 11,9 10,1 11,2 16,6 17,6 2 1 11 6 NNW 1012,4 20 0 0,0
20.10.2019 20:00:00 12,0 10,2 11,3 16,6 17,5 4 2 10 5 NW 1011,2 20 0 0,0
20.10.2019 19:00:00 12,1 11,0 11,6 16,6 17,6 6 3 30 16 NNO 1009,3 18 0 1,6
20.10.2019 18:00:00 14,4 11,9 14,3 16,5 17,6 2 1 13 7 NW 1007,8 20 0 0,0
20.10.2019 17:00:00 14,5 11,6 14,4 16,5 17,6 10 5 15 8 WNW 1007,6 20 0 0,0
20.10.2019 16:00:00 14,8 12,7 14,8 16,5 17,6 8 5 15 8 NW 1006,9 20 0 0,0
20.10.2019 15:00:00 15,0 11,9 14,8 16,4 17,6 2 1 16 9 ZZO 1006,0 20 0 0,0
20.10.2019 14:00:00 14,5 12,4 14,4 16,4 17,6 10 5 13 7 NW 1006,4 20 0 0,0
20.10.2019 13:00:00 14,8 13,5 14,2 16,4 17,6 6 3 18 10 NW 1005,8 20 0 0,8
20.10.2019 12:00:00 14,2 13,2 13,9 16,4 17,6 9 5 21 12 WNW 1006,1 10 0 1,4
20.10.2019 11:00:00 15,6 14,0 15,6 16,5 17,6 4 2 16 9 N 1004,1 20 15 0,0
20.10.2019 10:00:00 15,2 13,9 11,4 16,5 17,6 3 2 9 5 NO 1003,1 20 41 0,2
20.10.2019 09:00:00 11,5 10,7 9,4 16,6 17,6 6 3 15 8 W 1003,1 14 0 0,8
20.10.2019 08:00:00 10,7 9,8 8,8 16,6 17,6 5 3 9 5 OZO 1002,8 20 0 0,2
20.10.2019 07:00:00 11,5 9,7 9,9 16,7 17,6 4 2 7 4 ZZW 1003,3 20 0 0,0
20.10.2019 06:00:00 11,6 10,2 9,8 16,8 17,6 5 3 11 6 ZO 1002,8 20 0 0,0
20.10.2019 05:00:00 11,9 10,1 9,9 16,9 17,7 3 2 12 7 O 1001,7 20 0 0,0
20.10.2019 04:00:00 10,9 9,7 9,6 16,9 17,6 5 3 14 8 WZW 1001,8 20 0 0,0
20.10.2019 03:00:00 10,9 9,7 8,6 17,0 17,6 8 5 13 7 WZW 1002,2 20 0 0,0
20.10.2019 02:00:00 11,5 9,2 8,9 17,0 17,6 8 4 21 11 ZZW 1002,3 20 0 0,0
20.10.2019 01:00:00 10,5 9,4 8,1 17,0 17,6 5 3 15 8 ZZW 1003,0 20 0 0,0
20.10.2019 00:00:00 10,8 10,0 8,2 17,1 17,7 4 2 16 9 ZW 1003,6 16 0 0,0
19.10.2019 23:00:00 11,6 10,8 8,5 17,1 17,6 0 0 8 4 N 1003,7 9 0 0,0
19.10.2019 22:00:00 11,8 11,0 8,4 17,1 17,7 4 2 8 5 W 1004,2 17 0 0,0
19.10.2019 21:00:00 12,3 11,2 9,2 17,1 17,7 5 3 9 5 Z 1004,2 18 0 0,0
19.10.2019 20:00:00 13,9 11,9 10,3 17,0 17,7 3 1 8 4 ZZO 1004,3 18 0 0,0
19.10.2019 19:00:00 16,0 12,5 14,6 16,9 17,7 5 3 8 4 W 1003,9 20 36 0,0
19.10.2019 18:00:00 20,2 12,9 19,6 16,7 17,7 2 1 14 8 N 1003,4 20 34 0,0
19.10.2019 17:00:00 21,4 12,3 26,1 16,5 17,7 5 3 15 8 N 1003,5 20 55 0,0
19.10.2019 16:00:00 21,2 12,1 28,8 16,4 17,7 8 5 16 9 NO 1003,5 20 60 0,0
19.10.2019 15:00:00 21,4 12,3 28,3 16,3 17,7 5 3 18 10 WNW 1004,1 20 60 0,0
19.10.2019 14:00:00 21,2 12,3 27,3 16,2 17,7 5 3 16 8 N 1004,5 20 60 0,0
19.10.2019 13:00:00 20,2 11,4 27,2 16,2 17,7 6 4 11 6 NNW 1005,8 20 60 0,0
19.10.2019 12:00:00 19,2 11,2 18,6 16,2 17,7 3 1 8 4 ZZO 1006,2 20 50 0,0
19.10.2019 11:00:00 16,5 10,3 13,9 16,3 17,7 4 2 13 7 ZO 1007,6 20 37 0,0
19.10.2019 10:00:00 12,4 8,9 10,5 16,3 17,7 10 6 22 12 ZO 1008,9 20 41 0,0
19.10.2019 09:00:00 10,9 9,7 10,5 16,4 17,7 8 4 12 6 ZZO 1010,2 20 0 0,0
19.10.2019 08:00:00 11,4 10,6 10,9 16,4 17,7 2 1 10 5 ZO 1010,0 19 0 0,0
19.10.2019 07:00:00 11,4 10,6 10,1 16,4 17,7 0 0 18 10 N 1010,3 19 0 0,0
19.10.2019 06:00:00 10,7 10,2 6,7 16,5 17,7 13 7 20 11 WNW 1010,1 12 0 0,0
19.10.2019 05:00:00 9,9 9,1 7,7 16,5 17,7 8 5 16 8 W 1008,8 20 0 0,0
19.10.2019 04:00:00 12,3 10,0 10,9 16,5 17,7 7 4 16 9 OZO 1008,7 20 0 0,0
19.10.2019 03:00:00 12,9 10,4 11,7 16,6 17,8 8 4 26 14 OZO 1009,4 20 0 0,0
19.10.2019 02:00:00 12,7 10,8 11,3 16,6 17,7 11 6 21 11 OZO 1010,0 20 0 0,0
19.10.2019 01:00:00 12,8 11,2 9,5 16,6 17,8 12 6 19 10 ZZO 1011,0 20 0 0,0
19.10.2019 00:00:00 11,7 10,8 9,5 16,6 17,7 4 2 8 4 O 1012,1 15 0 0,0
18.10.2019 23:00:00 12,4 11,1 10,7 16,7 17,8 3 2 9 5 ZZW 1012,5 20 0 0,0
18.10.2019 22:00:00 13,7 11,6 12,0 16,7 17,8 4 2 13 7 OZO 1012,1 20 0 0,0
18.10.2019 21:00:00 14,4 11,7 13,3 16,6 17,8 4 2 20 11 O 1012,6 20 0 0,0
18.10.2019 20:00:00 14,7 12,0 14,0 16,6 17,8 4 2 8 5 ZO 1013,9 20 0 0,0
18.10.2019 19:00:00 15,3 11,9 14,6 16,5 17,8 2 1 7 4 ONO 1014,3 20 0 0,0
18.10.2019 18:00:00 15,6 11,8 15,9 16,5 17,8 5 3 8 5 NO 1014,4 20 0 0,0
18.10.2019 17:00:00 16,0 11,6 16,1 16,4 17,8 3 1 9 5 NNO 1014,6 20 0 0,0
18.10.2019 16:00:00 16,1 11,7 17,2 16,3 17,8 5 3 10 5 NW 1014,7 20 0 0,0
18.10.2019 15:00:00 16,9 11,6 19,1 16,3 17,8 4 2 9 5 NNO 1015,0 20 0 0,0
18.10.2019 14:00:00 16,2 11,1 19,1 16,3 17,8 4 2 13 7 NNW 1016,0 20 16 0,0
18.10.2019 13:00:00 16,1 10,6 16,0 16,3 17,8 5 3 11 6 NNO 1016,9 20 0 0,0
18.10.2019 12:00:00 14,9 10,7 14,7 16,3 17,8 8 4 21 11 WNW 1017,7 20 0 0,0
18.10.2019 11:00:00 14,2 11,5 13,5 16,3 17,8 6 3 17 9 NW 1017,8 20 0 0,0
18.10.2019 10:00:00 12,0 9,7 11,0 16,4 17,8 0 0 5 3 N 1017,2 20 0 0,0
18.10.2019 09:00:00 11,4 9,0 9,1 16,4 17,9 3 1 10 5 O 1015,9 20 0 0,0
18.10.2019 08:00:00 11,2 8,6 8,2 16,5 17,8 3 2 6 3 ZO 1015,2 20 0 0,0
18.10.2019 07:00:00 12,9 8,4 11,9 16,5 17,9 4 2 27 15 NO 1014,5 20 0 0,0
18.10.2019 06:00:00 14,6 8,1 12,3 16,6 17,8 18 10 31 17 ZZO 1013,4 20 0 0,0
18.10.2019 05:00:00 14,0 8,2 12,2 16,6 17,9 13 7 32 17 ZO 1013,6 20 0 0,0
18.10.2019 04:00:00 13,3 8,4 12,1 16,7 17,9 17 9 27 15 ZO 1014,6 20 0 0,0
18.10.2019 03:00:00 13,0 8,7 10,8 16,7 17,9 22 12 29 16 ZZO 1015,2 20 0 0,0
18.10.2019 02:00:00 12,1 8,8 7,1 16,8 17,9 11 6 22 12 ZO 1015,7 20 0 0,0
18.10.2019 01:00:00 12,5 8,8 10,5 16,8 17,9 14 8 21 11 ZZO 1015,9 20 0 0,0
18.10.2019 00:00:00 13,2 9,1 11,0 16,9 17,9 14 7 23 13 ZZO 1015,9 20 0 0,0
17.10.2019 23:00:00 13,2 9,6 10,6 16,9 17,9 16 8 24 13 ZZO 1016,6 20 0 0,0
17.10.2019 22:00:00 12,7 10,4 8,5 16,9 17,9 10 5 15 8 ZO 1016,9 20 0 0,0
17.10.2019 21:00:00 11,4 9,6 7,9 16,8 17,9 5 3 11 6 ZZO 1017,0 20 0 0,0
17.10.2019 20:00:00 13,4 10,4 11,0 16,7 17,9 4 2 8 4 Z 1016,2 20 0 0,0
17.10.2019 19:00:00 15,5 10,9 13,5 16,6 17,9 4 2 5 3 WZW 1015,2 20 37 0,0
17.10.2019 18:00:00 19,1 11,1 20,5 16,5 17,9 3 2 5 3 WZW 1014,1 20 24 0,0
17.10.2019 17:00:00 19,7 9,0 22,4 16,4 17,9 0 0 8 4 N 1014,2 20 41 0,0
17.10.2019 16:00:00 19,3 10,0 25,3 16,3 18,0 3 2 10 5 ONO 1014,3 20 43 0,0
17.10.2019 15:00:00 18,8 9,3 20,7 16,2 17,9 4 2 12 7 N 1014,5 20 15 0,0

tt = temperatuur
td = dauwpunt
tt 5cm = temperatuur 5cm
tt -20cm = temperatuur -20cm
tt -100cm = temperatuur -100cm
ff = windsnelheid
fx = windstoten
dd = windrichting
ppp = luchtdruk
vv = zicht
sd = Zonneschijnduur
rr = neerslag

Weerstations in de omgeving